Showing default

TRANSIT 5E 3, 705

Orbit data source: Space-Track

TRANSIT 5E 3, 705 is a payload satellite owned by USN BuWeps (US) in LEO that was launched on Thu, 05 Dec 1963 UTC via a THOR ABLESTAR launch vehicle from the Air Force Western Test Range (AFWTR). Payload-class satellites include a variety of spacecraft equipped with specific instruments for various scientific and technological missions. These include communications satellites like Starlink; space stations such as the ISS; scientific satellites like the Hubble; Earth observation satellites from companies like Planet Labs, Umbra, and HawkEye 360; GPS; miniature CubeSats for education and research; and military/defense satellites.

Loading next visibility...
Identifier
705, 1963-049C
Orbit
LEO
Country
Flag of USUS
Related business
Manufacturer
APL
Mission
Spacecraft
Bus & Motor
TRANSIT 5, Unknown motor
Mass
52 kg wet, 52 kg dry
Launch date (UTC)
1963-12-05 (63 years ago)
Launch vehicle
THOR ABLESTAR
Launch site
Air Force Western Test Range (AFWTR)
Object type
Payload
Rocket body
Debris
Shape & HBR
Unknown
Radar Cross Section
Medium (>0.1 m² and <1 m²)

Expand to show TLE details & history
Last TLE update: 6 hours ago

TLE from 6 hours ago
0 TRANSIT 5E 3
1   705U 63049C   26177.73793007  .00000072  00000-0  10255-3 0  9998
2   705  89.9240  70.3319 0032183 225.4710 195.6998 13.47675974 73388
Epoch: 2026-06-26T17:42Z
TLE epoch observation values (Epoch: 2026-06-26T17:42:37.158Z)
Latitude
61.15916°
Longitude
-110.04775°
Altitude
1,114.472 km
Speed
7.29 km/s
True Right ascension
04h 41m 52s
True Declination
61° 01' 14"
Sunlit
Object was in daylight at epoch
Visualization orbit readout
Latitude
Unknown
Longitude
Unknown
Altitude
Unknown
Speed
Unknown
Apparent Right ascension
Unknown
Apparent Declination
Unknown
Sunlit
N/A
Visualization observer readout
Local Sidereal Time
10:52:11
Azimuth
Unknown
Elevation
Unknown
Doppler factor
Unknown
Orbital elements
Apogee altitude
1,101.87 km
Perigee altitude
1,053.879 km
Semi-major axis
7,456.012 km
Eccentricity
0.00322
Inclination
89.924°
RAAN
70.3319°
Arg. of periapsis
225.471°
True anomaly
195.60039°
Mean anomaly
195.6998°
Eccentric anomaly
195.65006°
Mean motion
3.37119 °/min
Orbital period
106.79 mins
BSTAR
0.00010255
Loading maneuver chart data...
Computing Atmospheric mass density...
Loading historical data...
Loading historical data...
Loading historical data...
Loading historical data...
Loading historical data...
Loading historical data...
Loading historical data...

Documentation

Showing up to 5 results
|